Location: Recife
(8.0585°S, 34.8848°W)
Time: 10:49:37
(UTC-03:00)

Courier 1B Rocket - Pass Details

Date: 21 April 2026
Orbit: 920 x 1201 km, 28.2° (Epoch: 13 May)

Event Time Altitude Azimuth Distance (km) Brightness Sun altitude
Rises 10:01:45 0° 229° (SW) 3,817 7.8 62.4°
Reaches altitude 10° 10:04:41 10° 220° (SW) 2,907 7.3 62.9°
Maximum altitude 10:11:08 35° 156° (SSE) 1,741 6.7 63.9°
Drops below altitude 10° 10:17:56 10° 93° (E) 3,073 8.0 65.0°
Sets 10:21:06 0° 84° (E) 4,060 8.5 65.4°
